TimeCST,TemperatureF,Dew PointF,Humidity,Sea Level PressureIn,VisibilityMPH,Wind Direction,Wind SpeedMPH,Gust SpeedMPH,PrecipitationIn,Events,Conditions,WindDirDegrees,DateUTC
12:15 AM,-9999,-9999,N/A,29.95,4.0,Calm,Calm,-,N/A,,Haze,0,2012-12-12 06:15:00
12:35 AM,-9999,-9999,N/A,29.94,7.0,Calm,Calm,-,N/A,,Clear,0,2012-12-12 06:35:00
12:55 AM,-9999,-9999,N/A,29.94,10.0,ESE,6.9,-,N/A,,Clear,110,2012-12-12 06:55:00
1:15 AM,-9999,-9999,N/A,29.93,10.0,ESE,8.1,-,N/A,,Clear,110,2012-12-12 07:15:00
1:35 AM,-9999,-9999,N/A,29.93,10.0,Calm,Calm,-,N/A,,Clear,0,2012-12-12 07:35:00
1:55 AM,-9999,-9999,N/A,29.92,10.0,ESE,9.2,-,N/A,,Clear,110,2012-12-12 07:55:00
2:15 AM,-9999,-9999,N/A,29.92,10.0,Calm,Calm,-,N/A,,Clear,0,2012-12-12 08:15:00
2:35 AM,-9999,-9999,N/A,29.92,10.0,ESE,6.9,-,N/A,,Clear,110,2012-12-12 08:35:00
2:55 AM,-9999,-9999,N/A,29.92,10.0,ESE,9.2,-,N/A,,Clear,120,2012-12-12 08:55:00
3:15 AM,-9999,-9999,N/A,29.91,10.0,SE,8.1,-,N/A,,Clear,130,2012-12-12 09:15:00
3:35 AM,-9999,-9999,N/A,29.90,10.0,Calm,Calm,-,N/A,,Clear,0,2012-12-12 09:35:00
3:55 AM,-9999,-9999,N/A,29.88,10.0,SE,10.4,-,N/A,,Scattered Clouds,140,2012-12-12 09:55:00
4:14 AM,-9999,-9999,N/A,29.87,10.0,SSE,9.2,-,N/A,,Mostly Cloudy,150,2012-12-12 10:14:00
4:35 AM,-9999,-9999,N/A,29.86,10.0,SSE,12.7,-,N/A,,Overcast,150,2012-12-12 10:35:00
4:55 AM,-9999,-9999,N/A,29.86,10.0,SSE,12.7,-,N/A,,Overcast,160,2012-12-12 10:55:00
5:15 AM,-9999,-9999,N/A,29.86,10.0,SSE,12.7,-,N/A,,Overcast,160,2012-12-12 11:15:00
5:35 AM,-9999,-9999,N/A,29.85,10.0,SSE,13.8,-,N/A,,Overcast,160,2012-12-12 11:35:00
5:55 AM,-9999,-9999,N/A,29.85,10.0,SSE,15.0,-,N/A,,Overcast,160,2012-12-12 11:55:00
6:15 AM,-9999,-9999,N/A,29.85,10.0,South,12.7,-,N/A,,Overcast,170,2012-12-12 12:15:00
6:35 AM,-9999,-9999,N/A,29.85,10.0,South,15.0,19.6,N/A,,Mostly Cloudy,170,2012-12-12 12:35:00
6:55 AM,-9999,-9999,N/A,29.85,10.0,South,16.1,-,N/A,,Scattered Clouds,170,2012-12-12 12:55:00
7:14 AM,-9999,-9999,N/A,29.85,10.0,South,17.3,-,N/A,,Clear,180,2012-12-12 13:14:00
7:35 AM,-9999,-9999,N/A,29.85,10.0,South,16.1,-,N/A,,Clear,180,2012-12-12 13:35:00
7:55 AM,-9999,-9999,N/A,29.85,10.0,South,16.1,-,N/A,,Clear,180,2012-12-12 13:55:00
8:15 AM,-9999,-9999,N/A,29.86,10.0,South,18.4,-,N/A,,Scattered Clouds,180,2012-12-12 14:15:00
8:35 AM,-9999,-9999,N/A,29.86,10.0,South,20.7,-,N/A,,Scattered Clouds,180,2012-12-12 14:35:00
8:55 AM,-9999,-9999,N/A,29.86,10.0,South,19.6,24.2,N/A,,Scattered Clouds,170,2012-12-12 14:55:00
9:15 AM,-9999,-9999,N/A,29.86,10.0,South,18.4,-,N/A,,Mostly Cloudy,180,2012-12-12 15:15:00
9:34 AM,-9999,-9999,N/A,29.86,10.0,South,17.3,21.9,N/A,,Scattered Clouds,170,2012-12-12 15:34:00
9:55 AM,-9999,-9999,N/A,29.86,10.0,South,15.0,-,N/A,,Mostly Cloudy,170,2012-12-12 15:55:00
10:14 AM,-9999,-9999,N/A,29.86,10.0,South,18.4,-,N/A,,Scattered Clouds,180,2012-12-12 16:14:00
10:35 AM,-9999,-9999,N/A,29.86,10.0,South,16.1,-,N/A,,Clear,170,2012-12-12 16:35:00
10:55 AM,-9999,-9999,N/A,29.86,10.0,South,16.1,-,N/A,,Clear,170,2012-12-12 16:55:00
11:15 AM,-9999,-9999,N/A,29.85,10.0,South,15.0,-,N/A,,Clear,170,2012-12-12 17:15:00
11:35 AM,-9999,-9999,N/A,29.84,10.0,South,15.0,-,N/A,,Clear,170,2012-12-12 17:35:00
11:55 AM,-9999,-9999,N/A,29.83,10.0,South,13.8,18.4,N/A,,Clear,170,2012-12-12 17:55:00
12:15 PM,-9999,-9999,N/A,29.83,10.0,South,11.5,-,N/A,,Clear,170,2012-12-12 18:15:00
12:35 PM,-9999,-9999,N/A,29.82,10.0,SSE,10.4,-,N/A,,Clear,160,2012-12-12 18:35:00
12:55 PM,-9999,-9999,N/A,29.82,10.0,South,8.1,-,N/A,,Clear,170,2012-12-12 18:55:00
1:14 PM,-9999,-9999,N/A,29.82,10.0,Calm,Calm,-,N/A,,Clear,0,2012-12-12 19:14:00
1:35 PM,-9999,-9999,N/A,29.82,10.0,Calm,Calm,-,N/A,,Clear,0,2012-12-12 19:35:00
1:55 PM,-9999,-9999,N/A,29.82,10.0,Calm,Calm,-,N/A,,Clear,0,2012-12-12 19:55:00
2:15 PM,-9999,-9999,N/A,29.82,10.0,Calm,Calm,-,N/A,,Clear,0,2012-12-12 20:15:00
2:35 PM,-9999,-9999,N/A,29.82,10.0,Calm,Calm,-,N/A,,Clear,0,2012-12-12 20:35:00
2:54 PM,-9999,-9999,N/A,29.82,10.0,Calm,Calm,-,N/A,,Clear,0,2012-12-12 20:54:00
3:15 PM,-9999,-9999,N/A,29.82,10.0,Calm,Calm,-,N/A,,Clear,0,2012-12-12 21:15:00
3:34 PM,-9999,-9999,N/A,29.83,10.0,Calm,Calm,-,N/A,,Clear,0,2012-12-12 21:34:00
3:55 PM,-9999,-9999,N/A,29.83,10.0,South,6.9,-,N/A,,Clear,170,2012-12-12 21:55:00
4:14 PM,-9999,-9999,N/A,29.83,10.0,Calm,Calm,-,N/A,,Clear,0,2012-12-12 22:14:00
4:35 PM,-9999,-9999,N/A,29.84,10.0,Calm,Calm,-,N/A,,Clear,0,2012-12-12 22:35:00
4:54 PM,-9999,-9999,N/A,29.84,10.0,Calm,Calm,-,N/A,,Clear,0,2012-12-12 22:54:00
5:15 PM,-9999,-9999,N/A,29.85,10.0,Calm,Calm,-,N/A,,Clear,0,2012-12-12 23:15:00
5:35 PM,-9999,-9999,N/A,29.85,10.0,Calm,Calm,-,N/A,,Clear,0,2012-12-12 23:35:00
6:15 PM,-9999,-9999,N/A,29.86,10.0,South,8.1,-,N/A,,Clear,170,2012-12-13 00:15:00
6:35 PM,-9999,-9999,N/A,29.86,10.0,Calm,Calm,-,N/A,,Clear,0,2012-12-13 00:35:00
6:55 PM,-9999,-9999,N/A,29.87,10.0,Calm,Calm,-,N/A,,Clear,0,2012-12-13 00:55:00
7:15 PM,-9999,-9999,N/A,29.87,10.0,Calm,Calm,-,N/A,,Clear,0,2012-12-13 01:15:00
7:35 PM,-9999,-9999,N/A,29.87,10.0,Calm,Calm,-,N/A,,Clear,0,2012-12-13 01:35:00
7:55 PM,-9999,-9999,N/A,29.88,10.0,South,12.7,-,N/A,,Clear,170,2012-12-13 01:55:00
8:14 PM,-9999,-9999,N/A,29.88,10.0,South,12.7,-,N/A,,Clear,170,2012-12-13 02:14:00
8:35 PM,-9999,-9999,N/A,29.88,10.0,South,12.7,-,N/A,,Clear,170,2012-12-13 02:35:00
8:54 PM,-9999,-9999,N/A,29.88,10.0,SSE,15.0,-,N/A,,Clear,160,2012-12-13 02:54:00
9:15 PM,-9999,-9999,N/A,29.88,10.0,South,15.0,18.4,N/A,,Clear,170,2012-12-13 03:15:00
9:35 PM,-9999,-9999,N/A,29.88,10.0,South,17.3,-,N/A,,Clear,170,2012-12-13 03:35:00
9:55 PM,-9999,-9999,N/A,29.89,10.0,South,17.3,-,N/A,,Clear,180,2012-12-13 03:55:00
10:15 PM,-9999,-9999,N/A,29.89,10.0,South,17.3,21.9,N/A,,Clear,180,2012-12-13 04:15:00
10:35 PM,-9999,-9999,N/A,29.89,10.0,South,19.6,-,N/A,,Clear,180,2012-12-13 04:35:00
10:55 PM,-9999,-9999,N/A,29.89,10.0,South,19.6,-,N/A,,Clear,180,2012-12-13 04:55:00
11:15 PM,-9999,-9999,N/A,29.89,10.0,South,19.6,-,N/A,,Clear,180,2012-12-13 05:15:00
11:34 PM,-9999,-9999,N/A,29.89,10.0,South,18.4,-,N/A,,Clear,180,2012-12-13 05:34:00
11:55 PM,-9999,-9999,N/A,29.89,10.0,South,18.4,-,N/A,,Clear,180,2012-12-13 05:55:00